Home > Weather > Kuala Lumpur > Past weeks

Flag for Malaysia Past Weather in Kuala Lumpur, Malaysia — Yesterday and Last 2 Weeks

Now
91 °F

Broken clouds.


Feels Like: 97 °F
Forecast: 79 / 94 °F
Wind: 8 mph from Northwest

Location: Sultan Abdul Aziz Shah-Subang

Current Time: Aug 27, 2016 at 6:17:26 PM

Latest Report: Aug 27, 2016 at 5:00 PM


Visibility: N/A

Pressure: 29.77 "Hg

Humidity: 49%

Dew Point: 70 °F

Location of Kuala LumpurLocation

Past Weather in Kuala Lumpur — Graph

°F

Kuala Lumpur Temperature Yesterday

Maximum temperature yesterday: 91 °F (at 1:00 PM)
Minimum temperature yesterday: 79 °F (at 2:00 AM)
Average temperature yesterday: 84 °F

High & Low Weather Summary for the Past Weeks

 TemperatureHumidityPressure
High97 °F (Aug 20, 5:00 PM)100% (Aug 23, 11:00 PM)29.89 "Hg (Aug 23, 11:00 PM)
Low75 °F (Aug 18, 8:00 AM)39% (Aug 20, 6:00 PM)29.65 "Hg (Aug 23, 4:00 PM)
Average85 °F72%29.77 "Hg
* Reported Aug 12 5:00 PM — Aug 27 5:00 PM, Kuala Lumpur, Weather by CustomWeather, © 2016

Note: Actual official high and low records may vary slightly from our data, if they occured in-between our weather recording intervals... More about our weather records

Advertising

Kuala Lumpur Weather History for the Previous 24 Hours

Scroll right to see more
 ConditionsComfort  
Time TempWeatherWind HumidityBarometerVisibility
5:00 PM
Sat, Aug 27
91 °FBroken clouds.8 mph49%29.77 "HgN/A
4:00 PM91 °FPartly sunny.7 mph56%29.77 "HgN/A
3:00 PM91 °FPartly sunny.6 mph56%29.77 "HgN/A
2:00 PM90 °FPartly sunny.5 mph59%29.80 "HgN/A
1:00 PM90 °FBroken clouds.1 mph63%29.83 "HgN/A
12:00 PM88 °FPartly sunny.2 mph66%29.86 "HgN/A
11:00 AM86 °FBroken clouds.2 mph66%29.89 "HgN/A
10:00 AM82 °FBroken clouds.2 mph70%29.89 "HgN/A
9:00 AM79 °FBroken clouds.5 mph79%29.86 "Hg5 mi
8:00 AM81 °FScattered showers. Mostly cloudy.6 mph84%29.86 "Hg2 mi
7:00 AM79 °FPartly cloudy.1 mph89%29.83 "Hg4 mi
6:00 AM79 °FPassing clouds.No wind89%29.83 "Hg4 mi
5:00 AM81 °FPartly cloudy.1 mph84%29.83 "Hg6 mi
4:00 AM81 °FPartly cloudy.1 mph84%29.80 "Hg6 mi
3:00 AM81 °FPassing clouds.No wind84%29.83 "Hg6 mi
2:00 AM81 °FPartly cloudy.No wind84%29.83 "Hg6 mi
1:00 AM81 °FPartly cloudy.No wind84%29.83 "Hg6 mi
12:00 AM82 °FPassing clouds.No wind74%29.86 "HgN/A
11:00 PM
Fri, Aug 26
82 °FPassing clouds.3 mph74%29.86 "HgN/A
10:00 PM84 °FPartly cloudy.6 mph70%29.83 "HgN/A
9:00 PM84 °FPartly cloudy.2 mph74%29.80 "HgN/A
8:00 PM84 °FBroken clouds.5 mph70%29.77 "HgN/A
7:00 PM86 °FPartly sunny.3 mph70%29.77 "HgN/A
6:00 PM88 °FPartly sunny.5 mph66%29.74 "HgN/A
Weather by CustomWeather, © 2016

See weather overviewHow to use our weather pages